Weather in Areguá

Paraguay     25°18′28″S   57°23′21″W
temp.,
°C
wind,
m/s
gust,
m/s
humid.,
%
clouds,
%
prec.,
mm/h
press.,
hPa
HPBL,
m
25 february, thu
thu2500:00+26ese24703 0.0 1011124
03:00+24se22682 0.0 100951
06:00+23se23714 0.0 101068
09:00+26se366418 0.0 1012378
12:00+31se335620 0.0 1011807
15:00+29sw345858 0.0 1008420
18:00+34s363411 0.0 10061949
21:00+26se37485 0.0 1008169
26 february, fri
fri2600:00+24sse49460 0.0 1009178
03:00+23se39560 0.0 1008199
06:00+21se36710 0.0 1008127
09:00+26e36610 0.0 1010402
12:00+33ene33410 0.0 10091028
15:00+36e22240 0.0 10062384
18:00+35ese23320 0.0 1005716
21:00+28e34430 0.0 100793
27 february, sat
sat2700:00+26e38510 0.0 1009168
03:00+24e34650 0.0 1009104
06:00+23e34720 0.0 1010110
09:00+27ene59610 0.0 1012497
12:00+34ene45420 0.0 10121363
15:00+36e35310 0.0 10092642
18:00+34ese45370 0.0 10072249
21:00+28e37480 0.0 1008164
28 february, sun
sun2800:00+25e23530 0.0 101043
03:00+23ene37610 0.0 1010156
06:00+23ene311690 0.0 1011359
09:00+27ene69600 0.0 1012696
12:00+32ene45420 0.0 10111129
15:00+35e35320 0.0 10072217
18:00+34ese45350 0.0 10052044
21:00+28ese49500 0.0 1006234
1 march, mon
mon100:00+26ese33540 0.0 100774
03:00+24ene23620 0.0 100676
06:00+23ene22670 0.0 100735
09:00+28ene35600 0.0 1008325
12:00+34ne34400 0.0 10071451
15:00+37e33310 0.0 10032436
18:00+36ene23310 0.0 10021996
21:00+29e411510 0.0 1004357